Home   Weather   Saanich   Past weeks

Flag for Canada Past Weather in Saanich, British Columbia, Canada — Yesterday and Last 2 Weeks

Now
45 °F

Partly sunny.


Feels Like: 43 °F
Forecast: 44 / 48 °F
Wind: 3 mph from West

Location: Victoria Int. Airportb. C.

Current Time: Jan 17, 2017 at 1:31:45 pm

Latest Report: Jan 17, 2017 at 12:00 pm


Visibility: 20 mi

Pressure: 29.60 "Hg

Humidity: 87%

Dew Point: 41 °F

Location of SaanichLocation

Past Weather in Saanich — Graph

°F

Saanich Temperature Yesterday

Maximum temperature yesterday: 43 °F (at 12:00 pm)
Minimum temperature yesterday: 34 °F (at 12:00 am)
Average temperature yesterday: 38 °F

High & Low Weather Summary for the Past Weeks

 TemperatureHumidityPressure
High45 °F (Jan 17, 12:00 pm)100% (Jan 8, 2:00 pm)30.49 "Hg (Jan 8, 2:00 pm)
Low21 °F (Jan 12, 5:00 am)31% (Jan 3, 10:00 am)29.44 "Hg (Jan 8, 6:28 pm)
Average33 °F72%30.04 "Hg
* Reported Jan 2 12:00 pm — Jan 17 12:00 pm, Saanich, Weather by CustomWeather, © 2017

Note: Actual official high and low records may vary slightly from our data, if they occured in-between our weather recording intervals... More about our weather records

Advertising

Saanich Weather History for the Previous 24 Hours

Scroll right to see more
 ConditionsComfort  
Time TempWeatherWind HumidityBarometerVisibility
12:00 pm
Tue, Jan 17
45 °FPartly sunny.3 mph87%29.60 "Hg20 mi
11:34 am43 °FPartly sunny.No wind93%29.61 "Hg20 mi
11:00 am43 °FLight rain. Partly sunny.5 mph93%29.62 "Hg15 mi
10:00 am41 °FLight rain. Partly sunny.7 mph100%29.63 "Hg15 mi
9:00 am39 °FLight rain. Partly sunny.6 mph100%29.62 "Hg15 mi
8:41 am39 °FPartly sunny.9 mph100%29.63 "Hg12 mi
8:00 am39 °FLight rain. Mostly cloudy.7 mph100%29.64 "Hg12 mi
7:00 am39 °FLight rain. Mostly cloudy.3 mph100%29.66 "Hg15 mi
6:00 am39 °FLight rain. Mostly cloudy.3 mph93%29.69 "Hg15 mi
5:00 am39 °FLight rain. Mostly cloudy.6 mph93%29.73 "Hg15 mi
4:19 am39 °FLight rain. Mostly cloudy.6 mph93%29.76 "Hg15 mi
4:00 am39 °FOvercast.7 mph93%29.78 "Hg15 mi
3:30 am39 °FMostly cloudy.5 mph93%29.80 "Hg15 mi
3:00 am39 °FLight rain. Passing clouds.8 mph93%29.82 "Hg15 mi
2:29 am39 °FLight rain. Mostly cloudy.13 mph93%29.84 "Hg15 mi
2:00 am39 °FLight rain. Mostly cloudy.6 mph93%29.83 "Hg15 mi
1:00 am39 °FLight rain. Mostly cloudy.8 mph93%29.85 "Hg15 mi
12:00 am39 °FLight rain. Mostly cloudy.7 mph93%29.87 "Hg7 mi
11:52 pm
Mon, Jan 16
39 °FLight rain. Mostly cloudy.8 mph100%29.87 "Hg7 mi
11:00 pm39 °FLow clouds.3 mph93%29.88 "Hg12 mi
10:00 pm39 °FLow clouds.5 mph93%29.91 "Hg12 mi
9:43 pm39 °FLow clouds.6 mph93%29.92 "Hg15 mi
9:24 pm41 °FLight rain. Low clouds.5 mph93%29.92 "Hg15 mi
9:00 pm39 °FOvercast.No wind93%29.94 "Hg15 mi
8:00 pm37 °FLight rain. Mostly cloudy.5 mph100%29.95 "Hg15 mi
7:00 pm37 °FLight rain. Mostly cloudy.2 mph100%29.96 "Hg15 mi
6:00 pm39 °FLight rain. Overcast.5 mph87%29.98 "Hg8 mi
5:00 pm41 °FLight rain. Overcast.9 mph76%29.98 "Hg15 mi
4:00 pm41 °FLight rain. Overcast.No wind76%29.97 "Hg20 mi
3:00 pm43 °FLight rain. More clouds than sun.2 mph71%29.99 "Hg20 mi
2:00 pm43 °FLight rain. Overcast.7 mph71%30.03 "Hg20 mi
1:00 pm43 °FOvercast.2 mph61%30.06 "Hg20 mi
Weather by CustomWeather, © 2017

See weather overviewHow to use our weather pages